Location: Bourg-d�Oueil
(42.8588°N, 0.4991°E)
Time: 02:44:02
(UTC+00:00)

Okean 2 - Pass Details

Date: 16 June 2021
Orbit: 560 x 575 km, 82.5° (Epoch: 04 August)

Event Time Altitude Azimuth Distance (km) Brightness Sun altitude
Rises 20:39:06 0° 192° (SSW) 2,746 6.6 -9.4°
Reaches altitude 10° 20:41:17 10° 194° (SSW) 1,852 5.7 -9.7°
Maximum altitude 20:45:21 71° 278° (W) 598 3.6 -10.2°
Drops below altitude 10° 20:49:26 10° 4° (N) 1,861 6.7 -10.7°
Sets 20:51:38 0° 6° (N) 2,761 7.5 -11.0°
